Flag for Israel Weather past 2 weeks in Ashkelon, Israel

Now
97 °F

Passing clouds.


Feels Like: 115 °F
Forecast: 82 / 88 °F
Wind: 13 mph from Northwest

Location: Ben Gurion International Airport

Current Time: Aug 2, 2015 at 1:31:51 PM

Latest Report: Aug 2, 2015 at 12:50 PM


Visibility: N/A

Pressure: 29.71 "Hg

Humidity: 56%

Dew point: 79 °F

Location of AshkelonLocation

Historic Weather in Ashkelon — Graph

°F

Ashkelon temperature yesterday

Maximum temperature yesterday: 93 °F (at 4:50 PM)
Minimum temperature yesterday: 77 °F (at 4:50 AM)
Average temperature yesterday: 85 °F

Past Weeks' High & Low Weather Summary

 TemperatureHumidityPressure
High97 °F (Jul 24, 10:50 AM)89% (Jul 23, 5:50 AM)29.80 "Hg (Jul 23, 5:50 AM)
Low72 °F (Jul 24, 5:50 AM)28% (Jul 24, 10:20 AM)29.68 "Hg (Jul 19, 4:20 PM)
Average83 °F65%29.73 "Hg
* Reported Jul 18 12:20 PM — Aug 2 12:20 PM, Ashkelon, Weather by CustomWeather, © 2015

Note: Actual official high and low records may vary slightly from our data, if they occured in-between our weather recording intervals... More about our weather records

Advertising

Ashkelon weather history for previous 24 hours

 ConditionsComfort  
Time TempWeatherWind HumidityBarometerVisibility
12:20 PM
Sun, Aug 2
95 °FSunny.9 mph56%29.74 "Hg10 mi
11:50 AM95 °FPassing clouds.10 mph56%29.74 "HgN/A
11:20 AM93 °FSunny.6 mph53%29.77 "Hg10 mi
10:20 AM91 °FClear.3 mph56%29.77 "Hg6 mi
9:50 AM90 °FClear.2 mph63%29.77 "Hg5 mi
9:20 AM88 °FClear.1 mph66%29.77 "Hg6 mi
8:50 AM84 °FClear.2 mph74%29.77 "Hg4 mi
8:20 AM82 °FClear.1 mph79%29.77 "Hg4 mi
7:50 AM81 °FPassing clouds.3 mph79%29.77 "Hg4 mi
7:20 AM79 °FScattered clouds.2 mph84%29.77 "Hg4 mi
6:50 AM79 °FPassing clouds.5 mph79%29.77 "Hg4 mi
6:20 AM79 °FClear.3 mph89%29.74 "Hg4 mi
5:50 AM77 °FClear.2 mph89%29.74 "Hg4 mi
5:20 AM79 °FPassing clouds.5 mph84%29.74 "Hg5 mi
4:50 AM79 °FPassing clouds.2 mph84%29.74 "Hg6 mi
4:20 AM79 °FClear.3 mph89%29.71 "Hg6 mi
3:50 AM79 °FClear.3 mph84%29.74 "Hg6 mi
3:20 AM81 °FClear.5 mph84%29.74 "Hg6 mi
2:50 AM81 °FClear.3 mph84%29.74 "Hg6 mi
2:20 AM81 °FClear.3 mph84%29.74 "Hg10 mi
1:50 AM81 °FClear.1 mph84%29.74 "Hg10 mi
1:20 AM81 °FClear.2 mph84%29.74 "Hg10 mi
12:20 AM82 °FClear.3 mph79%29.77 "Hg10 mi
11:50 PM
Sat, Aug 1
82 °FClear.6 mph79%29.77 "Hg10 mi
11:20 PM82 °FClear.5 mph79%29.74 "Hg10 mi
10:50 PM82 °FClear.5 mph79%29.77 "Hg10 mi
10:20 PM82 °FClear.5 mph79%29.77 "Hg10 mi
9:50 PM84 °FClear.5 mph74%29.77 "Hg10 mi
9:20 PM84 °FClear.7 mph74%29.77 "Hg10 mi
8:50 PM84 °FClear.8 mph74%29.74 "Hg10 mi
8:20 PM84 °FSunny.8 mph74%29.74 "Hg10 mi
7:50 PM86 °FSunny.8 mph70%29.74 "Hg10 mi
7:20 PM86 °FSunny.10 mph70%29.74 "Hg10 mi
6:50 PM88 °FSunny.10 mph62%29.74 "Hg10 mi
6:20 PM90 °FPassing clouds.9 mph59%29.74 "HgN/A
5:50 PM90 °FSunny.10 mph59%29.74 "Hg10 mi
5:20 PM91 °FSunny.10 mph52%29.74 "Hg10 mi
4:50 PM93 °FSunny.12 mph44%29.74 "Hg10 mi
4:20 PM91 °FSunny.13 mph49%29.74 "Hg10 mi
3:50 PM91 °FSunny.13 mph49%29.74 "Hg10 mi
3:20 PM91 °FSunny.10 mph49%29.74 "Hg10 mi
2:50 PM91 °FPassing clouds.9 mph52%29.74 "HgN/A
2:20 PM91 °FPassing clouds.12 mph56%29.77 "HgN/A
1:50 PM90 °FSunny.12 mph63%29.77 "Hg10 mi
1:20 PM91 °FPassing clouds.12 mph56%29.77 "HgN/A
Weather by CustomWeather, © 2015

See weather overviewHow to use our weather pages